SL-16 DEB, 22474

Orbit data source: Space-Track

SL-16 DEB, 22474 is space debris in LEO originally from a launch on Fri, 25 Dec 1992 UTC launched from the Tyuratam Missile And Space Complex (TTMTR). Debris objects in space refer to the collection of defunct objects orbiting the Earth. Examples of debris include non-operational satellites, rocket bodies, and fragments generated from explosions, collisions, or faulty payload assembly.

Loading next visibility...
Identifier
22474, 1992-093FP
Orbit
LEO
Country
Flag of CISCIS
Related business
Manufacturer
Unknown
Mission
Spacecraft
Bus & Motor
Unknown
Mass
Unknown
Launch date (UTC)
1992-12-25 (33 years ago)
Launch vehicle
Unknown
Launch site
Tyuratam Missile And Space Complex (TTMTR)
Object type
Payload
Rocket body
Debris
Shape & HBR
Unknown shape, 0.1 m
Radar Cross Section
Small (<0.1 m²)

Expand to show TLE details & history
Last TLE update: 21 hours ago

TLE from 21 hours ago
0 SL-16 DEB
1 22474U 92093FP  25349.20966107  .00004069  00000-0  19419-2 0  9991
2 22474  71.3001 282.5185 0140508  77.6233 284.0577 14.14692846664307
Epoch: 2025-12-15T05:01Z
TLE epoch observation values (Epoch: 2025-12-15T05:01:54.716Z)
Latitude
-0.00002°
Longitude
122.92901°
Altitude
822.476 km
Speed
7.454 km/s
True Right ascension
18h 50m 04s
True Declination
0° 00' 00"
Sunlit
Object was in daylight at epoch
Visualization orbit readout
Latitude
Unknown
Longitude
Unknown
Altitude
Unknown
Speed
Unknown
Apparent Right ascension
Unknown
Apparent Declination
Unknown
Sunlit
N/A
Visualization observer readout
Local Sidereal Time
00:23:55
Azimuth
Unknown
Elevation
Unknown
Doppler factor
Unknown
Orbital elements
Apogee altitude
942.691 km
Perigee altitude
739.814 km
Semi-major axis
7,219.39 km
Eccentricity
0.01405
Inclination
71.3001°
RAAN
282.5185°
Arg. of periapsis
77.6233°
True anomaly
282.48932°
Mean anomaly
284.0577°
Eccentric anomaly
283.27416°
Mean motion
3.53828 °/min
Orbital period
101.74 mins
BSTAR
0.0019419
Loading maneuver chart data...
Computing Atmospheric mass density...
Loading historical data...
Loading historical data...
Loading historical data...
Loading historical data...
Loading historical data...
Loading historical data...
Loading historical data...

Documentation

Showing up to 5 results
|